Location: Turtle Rock Observatory
(36.6913°N, 81.9708°W)
Time: 19:00:03
(UTC-04:00)

Lacrosse 5 rocket - Visible Passes

Search period start: 29 May 2016 00:00
Search period end: 08 June 2016 00:00
Orbit: 471 x 636 km, 57.0° (Epoch: 27 May)

Date Brightness Start Highest point End Pass type
(mag) Time Alt. Az. Time Alt. Az. Time Alt. Az.
29 May 4.7 01:47:43 10° NNE 01:48:35 10° NNE 01:49:27 10° NE visible
29 May 2.3 03:24:28 10° NNW 03:28:44 50° NE 03:33:10 10° ESE visible
29 May 2.8 05:04:33 10° WNW 05:07:46 19° WSW 05:11:02 10° SSW visible
30 May 4.5 01:42:45 10° N 01:44:49 13° NNE 01:46:53 10° ENE visible
30 May 1.7 03:20:22 10° NW 03:24:46 70° NE 03:25:32 56° ESE visible
31 May 4.2 01:38:15 10° N 01:41:00 16° NE 01:43:30 11° ENE visible
31 May 2.4 03:16:20 10° NW 03:19:07 39° NW 03:19:07 39° NW visible
01 Jun 3.8 01:33:53 10° NNW 01:37:09 20° NE 01:38:03 19° NE visible
01 Jun 3.5 03:12:22 10° NW 03:13:43 19° NW 03:13:43 19° NW visible
02 Jun 3.4 01:29:36 10° NNW 01:33:05 26° NE 01:33:05 26° NE visible
02 Jun 4.0 03:08:30 10° NW 03:08:46 12° WNW 03:08:46 12° WNW visible
03 Jun 3.2 01:25:23 10° NNW 01:28:21 30° NNE 01:28:21 30° NNE visible
04 Jun 3.2 01:21:13 10° NNW 01:23:46 31° N 01:23:46 31° N visible
04 Jun 4.2 23:39:46 10° N 23:41:25 12° NNE 23:43:05 10° NE visible
05 Jun 3.3 01:17:07 10° NW 01:19:18 29° NNW 01:19:18 29° NNW visible
05 Jun 3.9 23:35:08 10° N 23:37:36 15° NNE 23:39:14 13° ENE visible
06 Jun 3.4 01:13:03 10° NW 01:14:56 26° NW 01:14:56 26° NW visible
06 Jun 3.6 23:30:43 10° N 23:33:44 19° NE 23:34:55 17° ENE visible
07 Jun 3.5 01:09:03 10° NW 01:10:38 22° NW 01:10:38 22° NW visible
07 Jun 3.2 23:26:24 10° NNW 23:29:51 24° NE 23:30:41 22° ENE visible
